sat.trackr.live / text

‹ back to catalog

STARLINK-32539

NORAD 62022 · 2024-213Q

PAYLOAD ACTIVE UNKNOWN

§ Identity

Operator
Country
US
Launch date
2024-11-18
Launch site
AFWTR
Launch vehicle
Mass (kg)
RCS (m²)

Purposes: comms

External: N2YO · Heavens-Above · Gunter

§ Orbital elements

Epoch: 2026-05-24T17:59:24.397152Z

Period
94.10 min
Inclination
53.1571°
Eccentricity
0.0001277
Mean motion
15.30218779 rev/d
Perigee alt
474.3 km
Apogee alt
476.0 km
Semi-major
6,853.3 km
B*
3.1149e-4
RAAN
162.3172°
Arg perigee
72.1387°
Mean anomaly
287.9753°
Rev number
8,497

§ Raw data

STARLINK-325391 62022U 24213Q   26144.74958793  .00008883  00000+0  31149-3 0  99902 62022  53.1571 162.3172 0001277  72.1387 287.9753 15.30218779 84975

JSON: /api/v1/satellites/62022 · /tle

For live sub-satellite position, see the globe view (requires WebGL).

§ Visibility from observer

Set your observer location to see the next 7 days of passes ≥ 10°. The values pass through the URL so the page stays shareable.

No JS? Fill the form by hand. The geolocation button needs JavaScript.